Newport Airport, OR

5:22 PM PST on January 21, 2018 (GMT -0800)
Newport Municipal

Weather History for KONP - July, 2012

Change the Weather History Date:

Friday, July 27, 2012

  Actual Average Record
Temperature  
Mean Temperature 56 °F -  
Max Temperature 62 °F 62 °F 68 °F (2000)
Min Temperature 51 °F 52 °F 46 °F (2003)
Degree Days  
Heating Degree Days 8    
Growing Degree Days 6 (Base 50)    
Moisture  
Dew Point 55 °F    
Average Humidity 90    
Maximum Humidity 100    
Minimum Humidity 77    
Precipitation  
Precipitation 0.01 in - - ()
Sea Level Pressure  
Sea Level Pressure 30.12 in    
Wind  
Wind Speed 2 mph (West)    
Max Wind Speed 8 mph    
Max Gust Speed -    
Visibility 7 miles    
Events Rain    
Averages and records for this station are not official NWS values.
T = Trace of Precipitation, MM = Missing Value Source: NWS Daily Summary

Daily Weather History Graph

Daily Weather History Graph

Search for Another Location

Airport or City:

Trip Planner

Search our weather history database for the weather conditions in past years. The results will help you decide how hot, cold, wet, or windy it might be!

Date:

Astronomy

Jul. 27, 2012 Rise Set
Actual Time 5:57 AM PDT 8:46 PM PDT
Civil Twilight 5:23 AM PDT 9:20 PM PDT
Nautical Twilight 4:40 AM PDT 10:03 PM PDT
Astronomical Twilight 3:50 AM PDT 10:53 PM PDT
Moon 3:51 PM PDT (7/27) 12:35 AM PDT (7/27)
Length of Visible Light 15h 56m
Length of Day
14h 48m
Waxing Gibbous, 66% of the Moon is Illuminated
Jul 27
Waxing Gibbous
Aug 1
Full
Aug 9
Last Quarter
Aug 17
New
Aug 24
First Quarter

Hourly Weather History & Observations

Time (PDT) Temp. Dew Point Humidity Pressure Visibility Wind Dir Wind Speed Gust Speed Precip Events Conditions
12:15 AM 53.6 °F 53.6 °F 100% 30.06 in 1.5 mi Calm Calm - N/A   Heavy Drizzle
12:35 AM 53.6 °F 53.6 °F 100% 30.06 in 2.5 mi Calm Calm - 0.01 in   Drizzle
12:55 AM 55.4 °F 53.6 °F 94% 30.07 in 7.0 mi Calm Calm - 0.01 in   Overcast
1:15 AM 55.4 °F 53.6 °F 94% 30.07 in 10.0 mi NNW 4.6 mph - N/A   Overcast
1:35 AM 55.4 °F 53.6 °F 94% 30.06 in 10.0 mi Calm Calm - N/A   Overcast
1:55 AM 55.4 °F 53.6 °F 94% 30.06 in 5.0 mi Calm Calm - N/A   Overcast
2:15 AM 55.4 °F 53.6 °F 94% 30.06 in 4.0 mi Calm Calm - N/A   Overcast
2:35 AM 55.4 °F 53.6 °F 94% 30.07 in 5.0 mi Calm Calm - N/A   Overcast
2:55 AM 55.4 °F 53.6 °F 94% 30.07 in 5.0 mi Calm Calm - N/A   Overcast
3:15 AM 53.6 °F 53.6 °F 100% 30.07 in 2.5 mi Calm Calm - N/A Rain Light Rain
3:35 AM 55.4 °F 53.6 °F 94% 30.08 in 3.0 mi Calm Calm - N/A   Overcast
3:55 AM 55.4 °F 53.6 °F 94% 30.07 in 2.5 mi Calm Calm - N/A   Overcast
4:15 AM 55.4 °F 53.6 °F 94% 30.08 in 2.5 mi Calm Calm - N/A   Light Drizzle
4:35 AM 55.4 °F 53.6 °F 94% 30.08 in 2.5 mi Calm Calm - N/A   Overcast
4:55 AM 55.4 °F 53.6 °F 94% 30.08 in 2.5 mi Calm Calm - N/A   Overcast
5:15 AM 55.4 °F 53.6 °F 94% 30.08 in 3.0 mi Calm Calm - N/A   Overcast
5:35 AM 53.6 °F 53.6 °F 100% 30.08 in 2.5 mi Calm Calm - N/A   Overcast
5:55 AM 55.4 °F 53.6 °F 94% 30.09 in 2.5 mi Calm Calm - N/A   Overcast
6:15 AM 55.4 °F 53.6 °F 94% 30.09 in 1.5 mi Calm Calm - N/A   Overcast
6:35 AM 55.4 °F 53.6 °F 94% - 5.0 mi Calm Calm - N/A   Overcast
6:55 AM 55.4 °F 53.6 °F 94% 30.10 in 1.5 mi Calm Calm - N/A   Overcast
7:15 AM 55.4 °F 55.4 °F 100% 30.10 in 2.0 mi SSW 3.5 mph - N/A   Overcast
7:35 AM 55.4 °F 55.4 °F 100% 30.11 in 7.0 mi Calm Calm - N/A   Overcast
7:55 AM 55.4 °F 55.4 °F 100% 30.11 in 3.0 mi Calm Calm - N/A   Overcast
8:15 AM 55.4 °F 55.4 °F 100% 30.11 in 0.8 mi SW 3.5 mph - N/A   Overcast
8:35 AM 55.4 °F 55.4 °F 100% 30.11 in 2.0 mi SSW 3.5 mph - N/A   Overcast
8:55 AM 55.4 °F 55.4 °F 100% 30.11 in 10.0 mi SW 3.5 mph - N/A   Overcast
9:35 AM 59.0 °F 57.2 °F 94% 30.12 in 7.0 mi SW 5.8 mph - N/A   Overcast
9:55 AM 57.2 °F 55.4 °F 94% 30.12 in 4.0 mi SW 3.5 mph - N/A   Overcast
10:15 AM 57.2 °F 57.2 °F 100% 30.13 in 10.0 mi WSW 5.8 mph - N/A   Overcast
10:35 AM 59.0 °F 57.2 °F 94% 30.13 in 10.0 mi WSW 5.8 mph - N/A   Overcast
10:55 AM 59.0 °F 55.4 °F 88% 30.14 in 10.0 mi West 5.8 mph - N/A   Mostly Cloudy
11:35 AM 59.0 °F 55.4 °F 88% 30.14 in 10.0 mi West 6.9 mph - N/A   Scattered Clouds
11:55 AM 59.0 °F 55.4 °F 88% 30.15 in 10.0 mi West 6.9 mph - N/A   Scattered Clouds
12:35 PM 60.8 °F 55.4 °F 82% 30.15 in 10.0 mi WSW 6.9 mph - N/A   Clear
12:55 PM 60.8 °F 55.4 °F 82% 30.15 in 10.0 mi West 6.9 mph - N/A   Clear
1:15 PM 60.8 °F 55.4 °F 82% 30.16 in 10.0 mi West 6.9 mph - N/A   Clear
1:35 PM 60.8 °F 55.4 °F 82% 30.16 in 10.0 mi West 6.9 mph - N/A   Clear
1:55 PM 62.6 °F 55.4 °F 77% 30.16 in 10.0 mi WNW 4.6 mph - N/A   Clear
2:15 PM 60.8 °F 55.4 °F 82% 30.16 in 10.0 mi WNW 6.9 mph - N/A   Clear
2:35 PM 62.6 °F 55.4 °F 77% 30.16 in 10.0 mi WNW 6.9 mph - N/A   Clear
2:55 PM 60.8 °F 55.4 °F 82% 30.17 in 10.0 mi WNW 5.8 mph - N/A   Clear
3:15 PM 60.8 °F 55.4 °F 82% 30.17 in 10.0 mi WNW 6.9 mph - N/A   Clear
3:35 PM 62.6 °F 55.4 °F 77% 30.17 in 10.0 mi WNW 5.8 mph - N/A   Clear
3:55 PM 62.6 °F 55.4 °F 77% 30.16 in 10.0 mi West 5.8 mph - N/A   Clear
4:15 PM 62.6 °F 55.4 °F 77% 30.16 in 10.0 mi WNW 5.8 mph - N/A   Clear
4:35 PM 62.6 °F 55.4 °F 77% 30.16 in 10.0 mi WNW 5.8 mph - N/A   Clear
4:55 PM 62.6 °F 55.4 °F 77% 30.16 in 10.0 mi West 6.9 mph - N/A   Clear
5:15 PM 62.6 °F 55.4 °F 77% 30.16 in 10.0 mi West 6.9 mph - N/A   Clear
5:35 PM 62.6 °F 55.4 °F 77% 30.15 in 10.0 mi NW 6.9 mph - N/A   Clear
5:55 PM 60.8 °F 55.4 °F 82% 30.15 in 10.0 mi NNW 8.1 mph - N/A   Clear
6:35 PM 60.8 °F 55.4 °F 82% 30.15 in 10.0 mi WNW 5.8 mph - N/A   Clear
6:55 PM 60.8 °F 55.4 °F 82% 30.14 in 10.0 mi WNW 6.9 mph - N/A   Clear
7:15 PM 60.8 °F 55.4 °F 82% 30.15 in 10.0 mi NW 5.8 mph - N/A   Clear
7:35 PM 60.8 °F 55.4 °F 82% 30.14 in 10.0 mi NW 5.8 mph - N/A   Clear
7:55 PM 59.0 °F 55.4 °F 88% 30.15 in 10.0 mi NW 4.6 mph - N/A   Clear
8:15 PM 59.0 °F 55.4 °F 88% 30.15 in 10.0 mi NW 3.5 mph - N/A   Clear
8:35 PM 59.0 °F 55.4 °F 88% 30.15 in 10.0 mi Calm Calm - N/A   Clear
8:55 PM 57.2 °F 53.6 °F 88% 30.15 in 10.0 mi Calm Calm - N/A   Clear
9:35 PM 55.4 °F 53.6 °F 94% 30.16 in 10.0 mi Calm Calm - N/A   Clear
9:55 PM 53.6 °F 51.8 °F 94% 30.16 in 10.0 mi Calm Calm - N/A   Clear
10:15 PM 53.6 °F 51.8 °F 94% 30.16 in 10.0 mi Calm Calm - N/A   Clear
10:35 PM 51.8 °F 51.8 °F 100% 30.16 in 10.0 mi Calm Calm - N/A   Clear
10:55 PM 51.8 °F 50.0 °F 94% 30.16 in 10.0 mi Calm Calm - N/A   Clear
11:35 PM 51.8 °F 50.0 °F 94% 30.16 in 10.0 mi Calm Calm - N/A   Mostly Cloudy